"Period start","avg(HW err(1)/warn(2) (#))","avg(Visibility (m))","avg(Weather code (#))","avg(Precip intensity (mm/h))","min(HW err(1)/warn(2) (#))","max(HW err(1)/warn(2) (#))","std(HW err(1)/warn(2) (#))","med(HW err(1)/warn(2) (#))","min(Visibility (m))","max(Visibility (m))","std(Visibility (m))","med(Visibility (m))","min(Weather code (#))","max(Weather code (#))","std(Weather code (#))","med(Weather code (#))","min(Precip intensity (mm/h))","max(Precip intensity (mm/h))","std(Precip intensity (mm/h))","med(Precip intensity (mm/h))"
2013-10-22 00:00:00,1,,,,1,1,0,1,,,,,,,,,,,,
2013-10-22 00:10:00,1,,,,1,1,0,1,,,,,,,,,,,,
2013-10-22 00:20:00,1,,,,1,1,0,1,,,,,,,,,,,,
2013-10-22 00:30:00,1,,,,1,1,0,1,,,,,,,,,,,,
2013-10-22 00:40:00,1,,,,1,1,0,1,,,,,,,,,,,,
2013-10-22 00:50:00,1,,,,1,1,0,1,,,,,,,,,,,,
2013-10-22 01:00:00,1,,,,1,1,0,1,,,,,,,,,,,,
2013-10-22 01:10:00,1,,,,1,1,0,1,,,,,,,,,,,,
2013-10-22 01:20:00,1,,,,1,1,0,1,,,,,,,,,,,,
2013-10-22 01:30:00,1,,,,1,1,0,1,,,,,,,,,,,,
2013-10-22 01:40:00,1,,,,1,1,0,1,,,,,,,,,,,,
2013-10-22 01:50:00,1,,,,1,1,0,1,,,,,,,,,,,,
2013-10-22 02:00:00,1,,,,1,1,0,1,,,,,,,,,,,,
2013-10-22 02:10:00,1,,,,1,1,0,1,,,,,,,,,,,,
2013-10-22 02:20:00,1,,,,1,1,0,1,,,,,,,,,,,,
2013-10-22 02:30:00,1,,,,1,1,0,1,,,,,,,,,,,,
2013-10-22 02:40:00,1,,,,1,1,0,1,,,,,,,,,,,,
2013-10-22 02:50:00,1,,,,1,1,0,1,,,,,,,,,,,,
2013-10-22 03:00:00,1,,,,1,1,0,1,,,,,,,,,,,,
2013-10-22 03:10:00,1,,,,1,1,0,1,,,,,,,,,,,,
2013-10-22 03:20:00,1,,,,1,1,0,1,,,,,,,,,,,,
2013-10-22 03:30:00,1,,,,1,1,0,1,,,,,,,,,,,,
2013-10-22 03:40:00,1,,,,1,1,0,1,,,,,,,,,,,,
2013-10-22 03:50:00,1,,,,1,1,0,1,,,,,,,,,,,,
2013-10-22 04:00:00,1,,,,1,1,0,1,,,,,,,,,,,,
2013-10-22 04:10:00,1,,,,1,1,0,1,,,,,,,,,,,,
2013-10-22 04:20:00,1,,,,1,1,0,1,,,,,,,,,,,,
2013-10-22 04:30:00,1,,,,1,1,0,1,,,,,,,,,,,,
2013-10-22 04:40:00,1,,,,1,1,0,1,,,,,,,,,,,,
2013-10-22 04:50:00,1,,,,1,1,0,1,,,,,,,,,,,,
2013-10-22 05:00:00,1,2310,76,0.17,1,2,0,1,1008,3905,1123,2164,71,77,3,77,0.00,0.45,0.17,0.12
2013-10-22 05:10:00,2,1830,78,0.06,2,2,0,2,1220,2774,492,1672,77,78,0,78,0.00,0.20,0.06,0.05
2013-10-22 05:20:00,2,3685,76,0.14,2,2,0,2,1498,6198,1578,3230,71,78,3,78,0.00,0.50,0.17,0.05
2013-10-22 05:30:00,2,4763,71,0.10,2,2,0,2,1658,8039,2409,4936,71,71,0,71,0.00,0.30,0.11,0.05
2013-10-22 05:40:00,2,12077,76,0.02,2,2,0,2,7061,21830,4457,12146,71,78,3,77,0.00,0.05,0.02,0.00
2013-10-22 05:50:00,2,22316,39,0.01,2,2,0,2,14334,30178,5289,22840,0,78,39,38,0.00,0.05,0.02,0.00
2013-10-22 06:00:00,2,27887,0,0.00,2,2,0,2,11787,42741,8992,27062,0,0,0,0,0.00,0.00,0.00,0.00
2013-10-22 06:10:00,2,37425,0,0.00,2,2,0,2,33814,41629,2741,37554,0,0,0,0,0.00,0.00,0.00,0.00
2013-10-22 06:20:00,2,35903,0,0.00,2,2,0,2,28957,42594,4947,36552,0,0,0,0,0.00,0.00,0.00,0.00
2013-10-22 06:30:00,2,10410,18,0.00,2,2,0,2,2612,36524,11871,4606,0,71,27,10,0.00,0.00,0.00,0.00
2013-10-22 06:40:00,2,1389,65,1.04,2,2,0,2,327,4668,1190,921,10,71,18,71,0.00,3.65,1.09,0.62
2013-10-22 06:50:00,2,872,71,2.38,2,2,0,2,191,1561,464,918,71,72,0,71,0.20,9.55,2.91,0.67
2013-10-22 07:00:00,2,2750,73,0.11,2,2,0,2,1504,7168,1681,1906,71,77,3,71,0.00,0.20,0.07,0.12
2013-10-22 07:10:00,2,5367,75,0.04,2,2,0,2,1729,8995,2292,5344,71,78,3,77,0.00,0.20,0.07,0.00
2013-10-22 07:20:00,2,9515,78,0.00,2,2,0,2,5320,17599,3954,8197,78,78,0,78,0.00,0.00,0.00,0.00
2013-10-22 07:30:00,2,8316,24,0.00,2,2,0,2,3165,12759,3065,9397,10,78,27,10,0.00,0.00,0.00,0.00
2013-10-22 07:40:00,2,1482,63,0.14,2,2,0,2,679,3830,888,1182,10,78,26,77,0.00,0.35,0.13,0.10
2013-10-22 07:50:00,2,2187,78,0.03,2,2,0,2,1321,3081,601,2166,78,78,0,78,0.00,0.05,0.03,0.03
2013-10-22 08:00:00,2,1005,74,0.26,2,2,0,2,716,1400,200,988,71,78,3,71,0.05,0.80,0.21,0.17
2013-10-22 08:10:00,2,670,75,0.71,2,2,0,2,401,1325,247,623,72,78,3,77,0.05,1.70,0.49,0.57
2013-10-22 08:20:00,2,584,72,1.50,2,2,0,2,277,1101,207,596,72,72,0,72,0.30,3.45,0.93,1.18
2013-10-22 08:30:00,2,868,71,0.53,2,2,0,2,635,1177,167,842,71,72,0,71,0.25,0.90,0.21,0.53
2013-10-22 08:40:00,2,810,71,0.64,2,2,0,2,601,1057,149,822,71,72,0,71,0.25,1.10,0.28,0.62
2013-10-22 08:50:00,2,870,75,0.59,2,2,0,2,374,1435,294,889,71,78,3,77,0.15,2.35,0.65,0.35
2013-10-22 09:00:00,2,598,72,1.21,2,2,0,2,388,987,171,616,72,72,0,72,0.35,2.20,0.57,1.33
2013-10-22 09:10:00,2,1283,74,0.21,2,2,0,2,734,1749,330,1304,71,77,3,72,0.05,0.75,0.20,0.15
2013-10-22 09:20:00,2,1798,77,0.10,2,2,0,2,1102,2643,452,1773,77,78,0,77,0.05,0.15,0.04,0.10
2013-10-22 09:30:00,2,2367,74,0.09,2,2,0,2,1415,3252,576,2422,71,77,3,74,0.00,0.30,0.09,0.05
2013-10-22 09:40:00,2,2630,74,0.03,2,2,0,2,1872,4825,888,2257,71,78,3,71,0.00,0.10,0.03,0.03
2013-10-22 09:50:00,2,1578,78,0.07,2,2,0,2,1041,1992,320,1604,78,78,0,78,0.00,0.15,0.06,0.05
2013-10-22 10:00:00,2,1623,76,0.08,2,2,0,2,1217,2076,293,1620,71,78,3,78,0.05,0.25,0.06,0.05
2013-10-22 10:10:00,2,2734,58,0.01,2,2,0,2,1734,3387,511,2882,10,78,31,78,0.00,0.05,0.02,0.00
2013-10-22 10:20:00,2,2665,63,0.09,2,2,0,2,1109,4040,877,2450,10,78,27,78,0.00,0.80,0.24,0.00
2013-10-22 10:30:00,2,3210,75,0.01,2,2,0,2,1996,5377,1088,3280,71,78,3,77,0.00,0.05,0.02,0.00
2013-10-22 10:40:00,2,2027,78,0.04,2,2,0,2,1466,2412,269,2076,78,78,0,78,0.00,0.10,0.03,0.05
2013-10-22 10:50:00,2,2017,78,0.04,2,2,0,2,1246,2816,451,1978,78,78,0,78,0.00,0.10,0.03,0.05
2013-10-22 11:00:00,2,2792,78,0.01,2,2,0,2,1935,3968,729,2758,78,78,0,78,0.00,0.05,0.02,0.00
2013-10-22 11:10:00,2,3724,78,0.01,2,2,0,2,2569,5351,800,3634,78,78,0,78,0.00,0.05,0.02,0.00
2013-10-22 11:20:00,2,3767,78,0.00,2,2,0,2,2865,5787,1030,3300,78,78,0,78,0.00,0.00,0.00,0.00
2013-10-22 11:30:00,2,4535,78,0.00,2,2,0,2,3321,6732,1172,4125,78,78,0,78,0.00,0.00,0.00,0.00
2013-10-22 11:40:00,2,5598,24,0.00,2,2,0,2,3496,7278,1053,5767,10,78,27,10,0.00,0.00,0.00,0.00
2013-10-22 11:50:00,2,5460,10,0.00,2,2,0,2,3370,7470,1186,5224,10,10,0,10,0.00,0.00,0.00,0.00
2013-10-22 12:00:00,2,6894,10,0.00,2,2,0,2,4748,8868,1163,6651,10,10,0,10,0.00,0.00,0.00,0.00
2013-10-22 12:10:00,2,7737,10,0.00,2,2,0,2,3500,11922,2952,8086,10,10,0,10,0.00,0.00,0.00,0.00
2013-10-22 12:20:00,2,5002,10,0.00,2,2,0,2,3517,6976,1112,5060,10,10,0,10,0.00,0.00,0.00,0.00
2013-10-22 12:30:00,2,6683,10,0.00,2,2,0,2,3841,10053,1947,6240,10,10,0,10,0.00,0.00,0.00,0.00
2013-10-22 12:40:00,2,8339,10,0.00,2,2,0,2,5580,12480,2291,7494,10,10,0,10,0.00,0.00,0.00,0.00
2013-10-22 12:50:00,2,9062,10,0.00,2,2,0,2,7089,13257,1805,8423,10,10,0,10,0.00,0.00,0.00,0.00
2013-10-22 13:00:00,2,13355,7,0.00,2,2,0,2,10265,18385,2406,13075,0,10,5,10,0.00,0.00,0.00,0.00
2013-10-22 13:10:00,2,24451,0,0.00,2,2,0,2,16315,27864,3562,26255,0,0,0,0,0.00,0.00,0.00,0.00
2013-10-22 13:20:00,2,20754,0,0.00,2,2,0,2,12608,34379,6154,18666,0,0,0,0,0.00,0.00,0.00,0.00
2013-10-22 13:30:00,2,16700,0,0.00,2,2,0,2,9727,25412,4844,16985,0,0,0,0,0.00,0.00,0.00,0.00
2013-10-22 13:40:00,2,8210,3,0.00,2,2,0,2,4314,15588,3802,6857,0,10,5,0,0.00,0.00,0.00,0.00
2013-10-22 13:50:00,2,4431,10,0.00,2,2,0,2,2076,8447,1801,3718,10,10,0,10,0.00,0.00,0.00,0.00
2013-10-22 14:00:00,2,10783,10,0.00,2,2,0,2,3941,24899,5991,9632,10,10,0,10,0.00,0.00,0.00,0.00
2013-10-22 14:10:00,2,14374,6,0.00,2,2,0,2,9103,24297,4848,12742,0,10,5,10,0.00,0.00,0.00,0.00
2013-10-22 14:20:00,2,15546,0,0.00,2,2,0,2,6257,23554,4873,15479,0,0,0,0,0.00,0.00,0.00,0.00
2013-10-22 14:30:00,2,25800,0,0.00,2,2,0,2,14903,31263,5485,27309,0,0,0,0,0.00,0.00,0.00,0.00
2013-10-22 14:40:00,2,23306,0,0.00,2,2,0,2,18367,30731,3468,23786,0,0,0,0,0.00,0.00,0.00,0.00
2013-10-22 14:50:00,2,6391,4,0.00,2,2,0,2,3655,12660,2815,5315,0,10,5,0,0.00,0.00,0.00,0.00
2013-10-22 15:00:00,2,2280,43,0.03,2,2,0,2,1244,3792,754,2258,10,78,33,40,0.00,0.15,0.05,0.00
2013-10-22 15:10:00,2,1893,56,0.04,2,2,0,2,915,2912,525,1778,10,78,30,74,0.00,0.30,0.09,0.00
2013-10-22 15:20:00,2,1409,78,0.07,2,2,0,2,816,2207,374,1322,78,78,0,78,0.00,0.20,0.06,0.05
2013-10-22 15:30:00,2,881,72,0.39,2,2,0,2,549,1358,245,774,71,78,3,71,0.10,0.80,0.21,0.38
2013-10-22 15:40:00,2,936,71,0.36,2,2,0,2,640,1250,162,899,71,71,0,71,0.10,0.70,0.21,0.35
2013-10-22 15:50:00,2,1527,74,0.25,2,2,0,2,487,2994,803,1434,71,78,3,71,0.00,1.25,0.36,0.08
2013-10-22 16:00:00,2,1706,78,0.07,2,2,0,2,942,2188,403,1780,78,78,0,78,0.00,0.20,0.07,0.05
2013-10-22 16:10:00,2,1886,76,0.08,2,2,0,2,1156,3849,829,1607,71,78,3,78,0.00,0.15,0.05,0.10
2013-10-22 16:20:00,2,1459,78,0.10,2,2,0,2,1037,2038,349,1305,78,78,0,78,0.00,0.20,0.06,0.08
2013-10-22 16:30:00,2,1933,70,0.07,2,2,0,2,924,3229,690,1874,0,78,23,78,0.00,0.30,0.08,0.05
2013-10-22 16:40:00,2,1879,48,0.07,2,2,0,2,932,3075,646,1830,10,77,31,71,0.00,0.30,0.09,0.03
2013-10-22 16:50:00,2,707,74,0.67,2,2,0,2,538,1022,141,650,71,77,3,72,0.30,1.45,0.35,0.50
2013-10-22 17:00:00,2,773,71,0.49,2,2,0,2,590,1017,128,789,71,72,0,71,0.20,1.00,0.25,0.40
2013-10-22 17:10:00,2,686,72,0.69,2,2,0,2,439,871,121,708,71,72,0,72,0.30,1.50,0.39,0.53
2013-10-22 17:20:00,2,821,71,0.55,2,2,0,2,573,1146,208,852,71,72,0,71,0.10,1.30,0.38,0.38
2013-10-22 17:30:00,2,1095,71,0.31,2,2,0,2,588,1750,319,1036,71,71,0,71,0.05,1.00,0.26,0.20
2013-10-22 17:40:00,2,994,75,0.21,2,2,0,2,756,1363,180,947,71,77,3,77,0.05,0.35,0.09,0.20
2013-10-22 17:50:00,2,1674,77,0.10,2,2,0,2,912,2740,594,1394,77,78,0,77,0.00,0.30,0.10,0.10
2013-10-22 18:00:00,2,1412,78,0.12,2,2,0,2,1015,1678,208,1446,77,78,0,78,0.05,0.25,0.07,0.08
2013-10-22 18:10:00,2,896,76,0.32,2,2,0,2,522,1205,213,905,71,78,3,78,0.10,0.85,0.22,0.25
2013-10-22 18:20:00,2,897,75,0.33,2,2,0,2,559,1246,220,895,71,77,3,77,0.05,0.75,0.21,0.28
2013-10-22 18:30:00,2,739,72,0.58,2,2,0,2,499,967,163,736,71,72,0,72,0.20,1.30,0.36,0.42
2013-10-22 18:40:00,2,610,72,0.81,2,2,0,2,427,1003,175,539,71,72,0,72,0.30,1.55,0.40,0.75
2013-10-22 18:50:00,2,525,72,1.06,2,2,0,2,353,683,105,492,72,72,0,72,0.55,2.00,0.50,0.95
2013-10-22 19:00:00,2,516,72,1.10,2,2,0,2,333,739,119,499,72,72,0,72,0.50,2.15,0.49,1.05
2013-10-22 19:10:00,2,666,72,0.60,2,2,0,2,439,924,145,676,71,72,0,72,0.25,1.35,0.31,0.50
2013-10-22 19:20:00,2,655,72,0.60,2,2,0,2,525,962,135,594,72,72,0,72,0.25,1.25,0.28,0.52
2013-10-22 19:30:00,2,709,73,0.59,2,2,0,2,428,1078,197,676,71,77,3,72,0.10,1.20,0.35,0.47
2013-10-22 19:40:00,2,637,72,0.86,2,2,0,2,416,847,152,597,71,72,0,72,0.20,2.30,0.60,0.62
2013-10-22 19:50:00,2,716,72,0.60,2,2,0,2,546,849,99,736,71,72,0,72,0.25,1.10,0.34,0.38
2013-10-22 20:00:00,2,640,72,0.59,2,2,0,2,446,885,117,628,71,72,0,72,0.20,1.05,0.26,0.57
2013-10-22 20:10:00,2,554,72,1.12,2,2,0,2,293,749,141,542,71,72,0,72,0.20,3.05,0.80,0.85
2013-10-22 20:20:00,2,350,73,2.06,2,2,0,2,270,421,47,342,72,73,0,73,1.55,3.45,0.61,1.80
2013-10-22 20:30:00,2,305,73,3.17,2,2,0,2,187,384,55,317,73,73,0,73,1.35,5.90,1.40,2.75
2013-10-22 20:40:00,2,337,73,2.26,2,2,0,2,226,412,53,342,73,73,0,73,1.10,3.95,0.76,2.08
2013-10-22 20:50:00,2,447,73,1.31,2,2,0,2,315,639,99,432,72,73,0,73,0.55,2.30,0.48,1.35
2013-10-22 21:00:00,2,635,72,0.58,2,2,0,2,520,794,92,613,72,72,0,72,0.35,1.05,0.22,0.50
2013-10-22 21:10:00,2,874,76,0.30,2,2,0,2,592,1289,207,823,71,77,2,77,0.05,0.70,0.19,0.23
2013-10-22 21:20:00,2,1059,74,0.19,2,2,0,2,755,1494,238,1030,71,78,3,74,0.05,0.45,0.11,0.17
2013-10-22 21:30:00,2,1466,75,0.09,2,2,0,2,904,2702,473,1398,71,78,3,77,0.00,0.20,0.06,0.08
2013-10-22 21:40:00,2,2178,78,0.03,2,2,0,2,1225,3244,609,2204,78,78,0,78,0.00,0.10,0.03,0.00
2013-10-22 21:50:00,2,3375,78,0.00,2,2,0,2,2601,4046,543,3424,78,78,0,78,0.00,0.00,0.00,0.00
2013-10-22 22:00:00,2,2100,78,0.04,2,2,0,2,960,3779,970,1780,78,78,0,78,0.00,0.15,0.06,0.00
2013-10-22 22:10:00,2,1497,78,0.06,2,2,0,2,1118,2095,288,1446,78,78,0,78,0.00,0.15,0.04,0.05
2013-10-22 22:20:00,2,1606,78,0.08,2,2,0,2,1028,2944,643,1348,78,78,0,78,0.00,0.25,0.07,0.05
2013-10-22 22:30:00,2,1604,78,0.06,2,2,0,2,1125,2340,348,1484,78,78,0,78,0.00,0.15,0.04,0.05
2013-10-22 22:40:00,2,3076,78,0.01,2,2,0,2,1612,5296,1045,2854,78,78,0,78,0.00,0.05,0.02,0.00
2013-10-22 22:50:00,2,6628,58,0.00,2,2,0,2,3083,12837,3200,5568,10,78,31,78,0.00,0.00,0.00,0.00
2013-10-22 23:00:00,2,9950,10,0.00,2,2,0,2,7892,12858,1453,9798,10,10,0,10,0.00,0.00,0.00,0.00
2013-10-22 23:10:00,2,7304,10,0.00,2,2,0,2,4596,12597,2414,6448,10,10,0,10,0.00,0.00,0.00,0.00
2013-10-22 23:20:00,2,11637,10,0.00,2,2,0,2,5961,20171,3728,11360,10,10,0,10,0.00,0.00,0.00,0.00
2013-10-22 23:30:00,2,19897,2,0.00,2,2,0,2,13994,24992,4160,20634,0,10,4,0,0.00,0.00,0.00,0.00
2013-10-22 23:40:00,2,15157,0,0.00,2,2,0,2,5802,26476,7122,11807,0,0,0,0,0.00,0.00,0.00,0.00
2013-10-22 23:50:00,2,13084,0,0.00,2,2,0,2,7810,21973,4175,11913,0,0,0,0,0.00,0.00,0.00,0.00
